LRCK Weather Reports


Display with metric or nautical units.
time (UTC)temp
F
wind
direction
speed
MPH
gust
MPH
rain 1hr
in
rain 24hr
in
rain mn
in
humidity
%
barometer
mb
20260906111815 81 310 15.0 29.0 0.00 0.00 0.00 30 1018.0
20260906110318 81 310 15.0 29.0 0.00 0.00 0.00 30 1018.0
20260906104817 84 340 14.0 0.0 0.00 0.00 0.00 27 1018.0
20260906103317 84 340 14.0 0.0 0.00 0.00 0.00 27 1018.0
20260906101814 82 330 15.0 0.0 0.00 0.00 0.00 28 1018.0
20260906100318 82 330 15.0 0.0 0.00 0.00 0.00 28 1018.0
20260906094818 81 320 13.0 0.0 0.00 0.00 0.00 28 1018.0
20260906093317 81 320 13.0 0.0 0.00 0.00 0.00 28 1018.0
20260906091819 81 330 10.0 0.0 0.00 0.00 0.00 32 1018.0
20260906090319 81 330 10.0 0.0 0.00 0.00 0.00 32 1018.0
20260906084818 79 360 9.0 0.0 0.00 0.00 0.00 34 1018.0
20260906083317 79 360 9.0 0.0 0.00 0.00 0.00 34 1018.0
20260906081817 77 350 10.0 0.0 0.00 0.00 0.00 36 1019.0
20260906080317 77 350 10.0 0.0 0.00 0.00 0.00 36 1019.0
20260906074817 73 350 10.0 0.0 0.00 0.00 0.00 44 1019.0
20260906073317 73 350 10.0 0.0 0.00 0.00 0.00 44 1019.0
20260906071818 73 360 11.0 0.0 0.00 0.00 0.00 50 1018.0
20260906070317 73 360 11.0 0.0 0.00 0.00 0.00 50 1018.0
20260906064816 73 360 10.0 0.0 0.00 0.00 0.00 50 1018.0
20260906063317 73 360 10.0 0.0 0.00 0.00 0.00 50 1018.0
20260906061932 72 30 15.0 0.0 0.00 0.00 0.00 50 1017.0
20260906060317 72 30 15.0 0.0 0.00 0.00 0.00 50 1017.0
20260906054843 70 20 17.0 0.0 0.00 0.00 0.00 53 1017.0
20260906053317 70 20 17.0 0.0 0.00 0.00 0.00 53 1017.0
20260906051817 68 360 14.0 0.0 0.00 0.00 0.00 56 1017.0
20260906050432 68 360 14.0 0.0 0.00 0.00 0.00 56 1017.0
20260906044932 66 20 13.0 0.0 0.00 0.00 0.00 64 1017.0
20260906043421 66 30 14.0 0.0 0.00 0.00 0.00 60 1016.0
20260906041933 66 30 14.0 0.0 0.00 0.00 0.00 60 1016.0
20260906040337 66 30 14.0 0.0 0.00 0.00 0.00 60 1016.0
20260906034833 66 20 15.0 0.0 0.00 0.00 0.00 60 1016.0
20260906033433 66 20 15.0 0.0 0.00 0.00 0.00 60 1016.0
20260906031932 68 20 17.0 0.0 0.00 0.00 0.00 56 1016.0
20260906030432 68 20 17.0 0.0 0.00 0.00 0.00 56 1016.0
20260906024844 68 20 17.0 0.0 0.00 0.00 0.00 64 1015.0
20260906023317 68 20 17.0 0.0 0.00 0.00 0.00 64 1015.0
20260906021824 68 20 16.0 0.0 0.00 0.00 0.00 69 1015.0
20260906020318 68 20 16.0 0.0 0.00 0.00 0.00 69 1015.0
20260906014818 68 10 17.0 0.0 0.00 0.00 0.00 69 1015.0
20260906013433 68 10 17.0 0.0 0.00 0.00 0.00 69 1015.0
20260906011817 68 20 15.0 0.0 0.00 0.00 0.00 69 1015.0
20260906010317 68 20 15.0 0.0 0.00 0.00 0.00 69 1015.0
20260906004934 68 10 13.0 0.0 0.00 0.00 0.00 69 1015.0
20260906003443 68 10 13.0 0.0 0.00 0.00 0.00 69 1015.0
20260906001933 66 350 10.0 0.0 0.00 0.00 0.00 68 1015.0
20260906000422 66 350 10.0 0.0 0.00 0.00 0.00 68 1015.0
20260905234827 66 330 8.0 0.0 0.00 0.00 0.00 73 1014.0
20260905233317 66 330 8.0 0.0 0.00 0.00 0.00 73 1014.0
20260905231933 66 260 8.0 0.0 0.00 0.00 0.00 73 1014.0
20260905230349 66 260 8.0 0.0 0.00 0.00 0.00 73 1014.0
20260905224933 64 260 8.0 0.0 0.00 0.00 0.00 78 1014.0
20260905223331 64 260 8.0 0.0 0.00 0.00 0.00 78 1014.0
20260905221918 66 240 7.0 0.0 0.00 0.00 0.00 73 1014.0
20260905220433 66 240 7.0 0.0 0.00 0.00 0.00 73 1014.0
20260905214932 68 220 7.0 0.0 0.00 0.00 0.00 69 1014.0
20260905213317 68 220 7.0 0.0 0.00 0.00 0.00 69 1014.0
20260905211817 70 200 6.0 0.0 0.00 0.00 0.00 64 1014.0
20260905210317 70 200 6.0 0.0 0.00 0.00 0.00 64 1014.0
20260905204828 72 210 7.0 0.0 0.00 0.00 0.00 61 1014.0
20260905203317 72 210 7.0 0.0 0.00 0.00 0.00 61 1014.0
20260905201817 72 210 7.0 0.0 0.00 0.00 0.00 61 1014.0
20260905200433 72 210 7.0 0.0 0.00 0.00 0.00 61 1014.0
20260905194924 73 210 9.0 0.0 0.00 0.00 0.00 57 1014.0
20260905193317 73 210 9.0 0.0 0.00 0.00 0.00 57 1014.0
20260905191846 73 210 10.0 0.0 0.00 0.00 0.00 57 1014.0
20260905190318 73 210 10.0 0.0 0.00 0.00 0.00 57 1014.0
20260905184818 75 190 11.0 0.0 0.00 0.00 0.00 54 1014.0
20260905183322 75 190 11.0 0.0 0.00 0.00 0.00 54 1014.0
20260905181817 77 190 11.0 0.0 0.00 0.00 0.00 47 1014.0
20260905180317 77 190 11.0 0.0 0.00 0.00 0.00 47 1014.0
20260905174817 79 180 11.0 0.0 0.00 0.00 0.00 48 1014.0
20260905173317 79 180 11.0 0.0 0.00 0.00 0.00 48 1014.0
20260905171828 79 220 7.0 0.0 0.00 0.00 0.00 42 1014.0
20260905170317 79 220 7.0 0.0 0.00 0.00 0.00 42 1014.0
20260905164817 84 240 7.0 0.0 0.00 0.00 0.00 31 1014.0
20260905163318 84 240 7.0 0.0 0.00 0.00 0.00 31 1014.0
20260905161818 88 250 8.0 0.0 0.00 0.00 0.00 25 1014.0
20260905160318 88 250 8.0 0.0 0.00 0.00 0.00 25 1014.0
20260905154834 90 260 9.0 0.0 0.00 0.00 0.00 24 1014.0
20260905153317 90 260 9.0 0.0 0.00 0.00 0.00 24 1014.0
20260905151818 91 260 10.0 0.0 0.00 0.00 0.00 24 1014.0
20260905150318 91 260 10.0 0.0 0.00 0.00 0.00 24 1014.0
20260905144817 91 250 13.0 0.0 0.00 0.00 0.00 23 1014.0
20260905143317 91 250 13.0 0.0 0.00 0.00 0.00 23 1014.0
20260905141817 93 260 11.0 0.0 0.00 0.00 0.00 21 1014.0
20260905140317 93 260 11.0 0.0 0.00 0.00 0.00 21 1014.0
20260905134931 91 250 11.0 0.0 0.00 0.00 0.00 21 1014.0
20260905133317 91 250 11.0 0.0 0.00 0.00 0.00 21 1014.0
20260905131820 93 260 14.0 0.0 0.00 0.00 0.00 23 1015.0
20260905130338 93 260 14.0 0.0 0.00 0.00 0.00 23 1015.0
20260905124818 93 250 11.0 0.0 0.00 0.00 0.00 23 1015.0
20260905123318 93 250 11.0 0.0 0.00 0.00 0.00 23 1015.0
20260905121845 91 250 13.0 0.0 0.00 0.00 0.00 24 1015.0
20260905120318 91 250 13.0 0.0 0.00 0.00 0.00 24 1015.0
20260905114817 91 260 13.0 0.0 0.00 0.00 0.00 24 1015.0
20260905113317 91 260 13.0 0.0 0.00 0.00 0.00 24 1015.0